This is the latest recevied weather packets stored in our database for station/object DG8SF-13. If no packets are shown the sender has not sent any weather packets the latest 10 day(s).
| Time | Temp. | Humidity | Pressure | Rain* | Wind** | Luminosity | Snow |
|---|---|---|---|---|---|---|---|
| 1777335287 | 6.11° C | 70% | 1017.4 hPa | 0 mm | - | - | - |
| 1777334974 | 6.11° C | 70% | 1017.4 hPa | 0 mm | - | - | - |
| 1777334674 | 6.11° C | 69% | 1017.3 hPa | 0 mm | - | - | - |
| 1777334361 | 6.67° C | 68% | 1017.4 hPa | 0 mm | - | - | - |
| 1777334051 | 6.67° C | 67% | 1017.4 hPa | 0 mm | - | - | - |
| 1777333736 | 7.22° C | 66% | 1017.3 hPa | 0 mm | - | - | - |
| 1777333438 | 7.22° C | 64% | 1017.4 hPa | 0 mm | - | - | - |
| 1777333125 | 7.22° C | 65% | 1017.3 hPa | 0 mm | - | - | - |
| 1777332827 | 7.22° C | 65% | 1017.4 hPa | 0 mm | - | - | - |
| 1777332513 | 7.22° C | 67% | 1017.3 hPa | 0 mm | - | - | - |
| 1777332202 | 7.22° C | 66% | 1017.3 hPa | 0 mm | - | - | - |
| 1777331887 | 7.22° C | 67% | 1017.4 hPa | 0 mm | - | - | - |
| 1777331590 | 7.22° C | 67% | 1017.5 hPa | 0 mm | - | - | - |
| 1777331275 | 7.22° C | 65% | 1017.4 hPa | 0 mm | - | - | - |
| 1777330978 | 7.22° C | 65% | 1017.5 hPa | 0 mm | - | - | - |
| 1777330666 | 7.22° C | 64% | 1017.5 hPa | 0 mm | - | - | - |
| 1777330356 | 7.78° C | 65% | 1017.5 hPa | 0 mm | - | - | - |
| 1777330040 | 7.78° C | 63% | 1017.6 hPa | 0 mm | - | - | - |
| 1777329742 | 7.78° C | 62% | 1017.5 hPa | 0 mm | - | - | - |
| 1777329429 | 7.78° C | 61% | 1017.5 hPa | 0 mm | - | - | - |
| 1777329118 | 8.33° C | 60% | 1017.7 hPa | 0 mm | - | - | - |
| 1777328804 | 8.33° C | 57% | 1017.7 hPa | 0 mm | - | - | - |
| 1777328508 | 8.89° C | 57% | 1017.7 hPa | 0 mm | - | - | - |
| 1777328193 | 8.89° C | 58% | 1017.8 hPa | 0 mm | - | - | - |
| 1777327881 | 8.89° C | 59% | 1017.7 hPa | 0 mm | - | - | - |
* Rain latest hour (hover to see other rain measurements)
** Current wind speed in m/s (hover to see current wind gust speed)